Regional Weather Roundup
Issued by NWS

Home | Current Version | Previous Version | Text Only | Print | Product List | Glossary Off
Versions: 1 2 3 4 5 6 7 8 9 10 11 12 13 14 15 16 17 18 19 20 21 22 23 24 25 26 27 28 29 30 31 32 33 34 35 36 37 38 39 40 41 42 43 44 45 46 47 48 49 50

000
ASUS45 KBOI 281110
RWRID
WEATHER ROUNDUP FOR IDAHO
NATIONAL WEATHER SERVICE BOISE ID
500 AM MDT TUE APR 28 2015

NOTE: "FAIR" INDICATES FEW OR NO CLOUDS BELOW 12000 FEET
WITH NO SIGNIFICANT WEATHER AND/OR OBSTRUCTIONS TO VISIBILITY

IDZ012-014-281200-
SOUTHWEST IDAHO


CITY           SKY/WX    TMP DP  RH WIND       PRES   REMARKS
BOISE          CLEAR     49  31  49 SE13      30.17S
CALDWELL       CLEAR     41  27  56 E6        30.18S
MOUNTAIN HOME  CLEAR     39  29  66 E6        30.19F WCI  35
$$

IDZ016-017-281200-
SOUTHCENTRAL IDAHO


CITY           SKY/WX    TMP DP  RH WIND       PRES   REMARKS
BURLEY         CLEAR     33  28  81 CALM      30.23S
JEROME         CLEAR     45  26  47 NE15      30.23F
TWIN FALLS     CLEAR     36  27  69 S7        30.23F WCI  30
$$

IDZ019>023-281200-
SOUTHEAST IDAHO


CITY           SKY/WX    TMP DP  RH WIND       PRES   REMARKS
IDAHO FALLS    PTCLDY    32  28  85 N7        30.27S WCI  26
POCATELLO      CLEAR     30  24  78 NW5       30.27R WCI  25
REXBURG        PTCLDY    33  31  92 NE3       30.27F
$$

IDZ006-010-011-018-031-032-281200-
CENTRAL IDAHO MOUNTAINS


CITY           SKY/WX    TMP DP  RH WIND       PRES   REMARKS
MCCALL         CLEAR     32  27  81 CALM      30.22F
HAILEY         CLEAR     36  32  87 NW10      30.31S WCI  28
STANLEY          N/A     26  19  74 CALM      30.32F
SALMON         CLEAR     36  32  87 CALM      30.28S
CHALLIS        CLEAR     37  30  75 SE5       30.29S WCI  33
$$

IDZ002-004-006-007-026-281200-
NORTHERN IDAHO


CITY           SKY/WX    TMP DP  RH WIND       PRES   REMARKS
LEWISTON       CLEAR     50  37  61 E9        30.08F
LOWELL           N/A     41  37  86 NW6       30.22S
COEUR D`ALENE  CLEAR     43  37  81 E8        30.14F
MULLAN PASS    CLEAR     42  27  55 SE10      30.20F
$$


USA.gov is the U.S. government's official web portal to all federal, state and local government web resources and services.